This is the latest recevied weather packets stored in our database for station/object AI9F. If no packets are shown the sender has not sent any weather packets the latest 10 day(s).
| Time | Temp. | Humidity | Pressure | Rain* | Wind** | Luminosity | Snow |
|---|---|---|---|---|---|---|---|
| 1777766366 | 13.89° C | 44% | 1018.7 hPa | 0 mm | - | 38 W/m² | - |
| 1777766063 | 14.44° C | 45% | 1018.7 hPa | 0 mm | - | 47 W/m² | - |
| 1777765760 | 14.44° C | 40% | 1018.7 hPa | 0 mm | - | 53 W/m² | - |
| 1777765457 | 14.44° C | 38% | 1018.6 hPa | 0 mm | - | 61 W/m² | - |
| 1777765154 | 15° C | 35% | 1018.6 hPa | 0 mm | - | 69 W/m² | - |
| 1777764849 | 15.56° C | 38% | 1018.6 hPa | 0 mm | - | 75 W/m² | - |
| 1777764547 | 15.56° C | 39% | 1018.7 hPa | 0 mm | - | 84 W/m² | - |
| 1777764243 | 15.56° C | 40% | 1018.7 hPa | 0 mm | - | 92 W/m² | - |
| 1777763940 | 15° C | 39% | 1018.4 hPa | 0 mm | - | 99 W/m² | - |
| 1777763637 | 15° C | 42% | 1018.4 hPa | 0 mm | - | 109 W/m² | - |
| 1777763335 | 15.56° C | 40% | 1018.4 hPa | 0 mm | - | 121 W/m² | - |
| 1777763033 | 15.56° C | 38% | 1018.7 hPa | 0 mm | - | 137 W/m² | - |
| 1777762730 | 15.56° C | 37% | 1018.6 hPa | 0 mm | - | 152 W/m² | - |
| 1777762426 | 15.56° C | 41% | 1018.7 hPa | 0 mm | - | 105 W/m² | - |
| 1777762124 | 15.56° C | 40% | 1018.5 hPa | 0 mm | - | 185 W/m² | - |
| 1777761819 | 16.11° C | 36% | 1018.6 hPa | 0 mm | - | 205 W/m² | - |
| 1777761517 | 16.11° C | 40% | 1018.6 hPa | 0 mm | - | 225 W/m² | - |
| 1777761215 | 15.56° C | 41% | 1018.6 hPa | 0 mm | - | 244 W/m² | - |
| 1777760912 | 15.56° C | 39% | 1018.5 hPa | 0 mm | - | 270 W/m² | - |
| 1777760610 | 15.56° C | 39% | 1018.7 hPa | 0 mm | - | 309 W/m² | - |
| 1777760305 | 15° C | 40% | 1018.6 hPa | 0 mm | - | 158 W/m² | - |
| 1777760002 | 15.56° C | 38% | 1018.5 hPa | 0 mm | - | 329 W/m² | - |
| 1777759700 | 16.11° C | 37% | 1018.6 hPa | 0 mm | - | 351 W/m² | - |
| 1777759395 | 15.56° C | 44% | 1018.4 hPa | 0 mm | - | 360 W/m² | - |
| 1777759092 | 16.11° C | 37% | 1018.7 hPa | 0 mm | - | 388 W/m² | - |
* Rain latest hour (hover to see other rain measurements)
** Current wind speed in m/s (hover to see current wind gust speed)